Regional Weather Roundup
Issued by NWS

Home | Current Version | Previous Version | Graphics & Text | Print | Product List | Glossary On
Versions: 1 2 3 4 5 6 7 8 9 10 11 12 13 14 15 16 17 18 19 20 21 22 23 24 25 26 27 28 29 30 31 32 33 34 35 36 37 38 39 40 41 42 43 44
491
ASUS44 KJAN 050403
RWRMS

MISSISSIPPI HOURLY WEATHER ROUNDUP
NATIONAL WEATHER SERVICE JACKSON MS
1000 PM CST WED MAR 04 2015

NOTE: "FAIR: INDICATES FEW OR NO CLOUDS BELOW 12,000 FEET WITH NO
SIGNIFICANT WEATHER AND/OR OBSTRUCTIONS TO VISIBILITY.

MSZ001>002-007>008-010>013-018>021-025>028-034>036-050500-
NORTHWEST MISSISSIPPI

CITY           SKY/WX    TMP DP  RH WIND       PRES   REMARKS
CLARKSDALE     MOCLDY    32  30  93 CALM      30.15R
CLEVELAND      MIX PCPN  32  32 100 N24G37    30.10R WCI  19
GREENWOOD      CLOUDY    37  33  85 NE18G28   30.05R WCI  27
GREENVILLE     CLOUDY    34  30  85 N23G35    30.10R WCI  22
OLIVE BRANCH   CLOUDY    28  28 100 CALM      30.16R
OXFORD         CLOUDY    32  28  86 N15G24    30.10R FOG     WCI  22
TUNICA         LGT SNOW  30  28  93 N9        30.18R WCI  22
$$

MSZ003>006-009-014>017-022>024-029>033-037>039-050500-
NORTHEAST MISSISSIPPI

CITY           SKY/WX    TMP DP  RH WIND       PRES   REMARKS
COLUMBUS AFB   NOT AVBL
CORINTH        LGT RAIN  34  30  86 N14G21    30.10F WCI  24
GOLDN TRIANGLE CLOUDY    43  37  81 N15       29.99R
STARKVILLE     CLOUDY    41  37  87 N9G16     30.02R
TUPELO         CLOUDY    37  33  85 NE20      30.06F WCI  27
$$

MSZ040-058-050500-
CENTRAL MISSISSIPPI

CITY           SKY/WX    TMP DP  RH WIND       PRES   REMARKS
JACKSON INTL   LGT RAIN  47  44  90 N13       29.97R
JACKSON HAWKNS LGT RAIN  45  42  89 N8        29.98R
MERIDIAN KEY   CLOUDY    70  67  90 S14       29.89S
MERIDIAN NAS   CLOUDY    54  52  93 N13G22    29.94R
VICKSBURG      LGT RAIN  38  35  89 N20G26    30.04R WCI  28
$$

MSZ059>079-050500-
SOUTH MISSISSIPPI

CITY           SKY/WX    TMP DP  RH WIND       PRES   REMARKS
BROOKHAVEN     CLOUDY    55  54  94 N8        29.94R
HATTIESBURG    CLOUDY    73  69  87 S9        29.93R
MCCOMB         CLOUDY    72  66  81 S9        29.91R
NATCHEZ        NOT AVBL
PINE BELT      PTCLDY    72  66  83 S12       29.93R
$$

MSZ080>082-050500-
COASTAL MISSISSIPPI

CITY           SKY/WX    TMP DP  RH WIND       PRES   REMARKS
BILOXI         FOG       67  67 100 S8        29.95R VSB 1/2
PASCAGOULA     CLOUDY    71  69  93 S3        29.95R
GULFPORT       PTCLDY    69  67  93 S6        29.94S
$$



USA.gov is the U.S. government's official web portal to all federal, state and local government web resources and services.